#timestamp,LO_Frequency,Hit,StdDev 
1668250815.9,286047001.9,N
1668250835.7,286047001.3,N
1668250855.5,286047001.5,N
1668250875.4,286047001.4,N
1668250895.2,286047002.0,N
1668250915.1,286047002.5,N
1668250916.0,286047002.5,N
1668250935.8,286047001.2,N
1668250955.6,286047000.4,N
1668250975.5,286047002.3,N
1668250995.3,286047001.4,N
1668251015.1,286047001.3,N
1668251035.9,286047003.3,N
1668251055.7,286047003.3,N
1668251075.6,286047004.3,N
1668251095.4,286047001.7,N
1668251115.2,286047001.5,N
1668251135.1,286047000.4,N
1668251136.0,286047000.4,N
1668251155.8,286046998.1,N
1668251175.7,286047000.8,N
1668251195.5,286046999.6,N
1668251215.3,286046998.8,N
1668251235.2,286047000.6,N
1668251255.0,286047001.2,N
1668251255.9,286047001.2,N
1668251275.7,286047000.3,N
1668251295.6,286047002.5,N
1668251315.4,286047001.1,N
1668251335.3,286046998.9,N
1668251355.1,286047000.6,N
1668251356.0,286047000.6,N
1668251375.8,286046999.2,N
1668251395.7,286046999.6,N
1668251415.5,286046997.0,N
1668251435.3,286046996.7,N
1668251455.2,286046999.2,N
1668251475.0,286046998.2,N
1668251475.9,286046998.2,N
1668251495.8,286047000.2,N
1668251515.6,286047001.9,N
1668251535.4,286047002.5,N
1668251555.3,286047000.3,N
1668251575.1,286046998.5,N
1668251595.8,286047000.8,N
1668251615.7,286047002.6,N
1668251635.5,286047004.3,N
1668251655.4,286047004.4,N
1668251675.2,286046999.9,N
1668251695.0,286046998.2,N
1668251695.9,286046998.2,N
1668251715.8,286046998.4,N
1668251735.6,286047001.1,N
1668251755.5,286047002.3,N
1668251775.3,286047002.4,N
1668251795.1,286047002.0,N
1668251815.9,286047002.8,N
1668251835.7,286047002.1,N
1668251855.5,286047002.7,N
1668251875.4,286047002.1,N
1668251895.2,286047001.6,N
1668251915.1,286047003.7,N
1668251916.0,286047003.7,N
1668251935.8,286047003.7,N
1668251955.6,286047003.7,N
1668251975.5,286047003.5,N
1668251995.3,286047003.1,N
1668252015.2,286047002.9,N
1668252035.9,286047005.4,N
1668252055.7,286047007.5,Y
1668252075.6,286047005.9,P
1668252095.4,286047003.4,N
1668252115.2,286047002.4,N
1668252135.1,286047001.1,N
1668252136.0,286047001.1,N
1668252155.8,286046999.1,N
1668252175.7,286047000.7,N
1668252195.5,286047000.8,N
1668252215.3,286047001.0,N
1668252235.2,286047002.8,N
1668252255.0,286047001.6,N
1668252255.9,286047001.6,N
1668252275.8,286046998.2,N
1668252295.6,286047000.8,N
1668252315.4,286047001.1,N
1668252335.3,286046998.6,N
1668252355.1,286046999.1,N
1668252375.8,286046999.0,N
1668252395.7,286046996.6,N
1668252415.5,286047000.5,N
1668252435.4,286047000.5,N
1668252455.2,286046999.8,N
1668252475.0,286047002.6,N
1668252475.9,286047002.6,N
1668252495.8,286047001.6,N
1668252515.6,286047004.0,N
1668252535.5,286047001.4,N
1668252555.3,286047003.9,N
1668252575.1,286047004.4,N
1668252595.9,286047002.1,N
1668252615.7,286047000.1,N
1668252635.5,286047002.1,N
1668252655.4,286046999.8,N
1668252675.2,286046998.8,N
1668252695.1,286047000.9,N
1668252696.0,286047000.9,N
1668252715.8,286046999.8,N
1668252735.6,286047002.7,N
1668252755.5,286047002.0,N
1668252775.3,286047004.2,N
1668252795.1,286047002.4,N
1668252815.9,286047001.3,N
1668252835.7,286046999.8,N
1668252855.6,286047001.4,N
1668252875.4,286047002.0,N
1668252895.2,286047001.5,N
1668252915.1,286047002.5,N
1668252916.0,286047002.5,N
1668252935.8,286047001.5,N
1668252955.7,286047001.5,N
1668252975.5,286047001.9,N
1668252995.3,286047001.9,N
1668253015.2,286047004.1,Y
1668253035.9,286047002.3,P
1668253055.7,286047002.1,P
1668253075.6,286047002.8,P
1668253095.4,286047002.3,Y
1668253115.3,286047000.9,P
1668253135.1,286046998.8,N
1668253136.0,286046998.8,N
1668253155.8,286046998.4,N
1668253175.7,286046998.3,N
1668253225.5,286046999.4,E
1668253235.5,286046999.3,N
1668253255.3,286046999.1,P
1668253275.1,286046996.8,P
1668253295.9,286046997.4,N
1668253315.7,286046997.6,N
1668253335.6,286046995.7,Y
1668253355.4,286046999.5,P
1668253375.2,286046996.6,P
1668253395.1,286046999.4,N
1668253396.0,286046999.4,N
1668253415.8,286046997.2,N
1668253435.6,286046996.5,Y
1668253455.5,286046998.2,P
1668253475.3,286046998.6,P
1668253495.2,286046998.5,P
1668253515.9,286046998.1,Y
1668253535.7,286047002.8,P
1668253555.6,286047000.2,N
1668253575.4,286047002.6,N
1668253595.3,286047002.8,N
1668253615.0,286047002.3,N
1668253615.9,286047002.3,N
1668253635.8,286047000.1,N
1668253655.6,286046999.9,N
1668253675.5,286046999.9,N
1668253695.3,286046998.2,N
1668253715.1,286046998.3,N
1668253735.9,286046998.2,N
1668253755.7,286046998.7,N
1668253775.5,286046998.8,N
1668253795.4,286046998.7,N
1668253815.2,286046998.6,N
1668253835.1,286046996.5,N
1668253836.0,286046996.5,N
1668253855.8,286046996.5,N
1668253875.6,286046999.5,N
1668253895.5,286046997.8,N
1668253915.3,286046995.0,N
1668253935.2,286046996.6,N
1668253955.9,286046996.9,N
1668253975.7,286046997.2,N
1668253995.6,286046996.8,N
1668254015.4,286046997.0,N
1668254035.2,286046997.3,N
1668254055.1,286046995.0,N
1668254056.0,286046995.0,N
1668254075.8,286046995.5,N
1668254095.7,286046995.8,N
1668254115.5,286046995.4,N
1668254135.3,286046994.9,N
1668254155.2,286046995.0,N
1668254175.0,286046994.9,N
1668254175.9,286046994.9,Y
1668254195.8,286046999.4,P
1668254215.6,286046997.0,N
1668254235.4,286046997.3,N
1668254255.3,286046997.4,N
1668254275.1,286046999.1,N
1668254295.8,286046999.5,N
1668254315.7,286046999.2,N
1668254335.5,286046997.2,N
1668254355.4,286046997.3,N
1668254375.2,286046997.7,N
1668254395.0,286046997.9,N
1668254395.9,286046997.9,N
